星链-31859 (STARLINK-31859 )

导读 | 星芒AI

STARLINK-31859 是 SpaceX 星链(Starlink)卫星互联网项目中的一颗低轨通信卫星。该卫星属于星链计划的第三批部署任务,旨在为全球用户提供高速、低延迟的互联网服务。它运行在约 550 公里的近地轨道,采用先进的通信技术和推进系统,支持宽带数据传输。作为星链星座的一部分,STARLINK-31859 有助于扩大卫星网络覆盖范围,特别是在偏远和网络基础设施薄弱的地区。该卫星的发射和运行体现了 SpaceX 在商业航天和全球通信领域的领先地位。

基本信息
目录编号:
59848
目录名称:
STARLINK-31859
国际标识:
2024-097P
轨道中心:
EARTH
卫星名称:
星链-31859
卫星全名:
星链-31859 (STARLINK-31859 )
卫星状态:
在轨 (已飞行528 天)
发射日期:
2024-05-23 UTC
国别 :
美国 (US)
星等 :
--
轨道信息
数据来源 国际轨道数据
星历时间: 2025-11-01T12:27:17+0800
1天前
查看轨道信息
半长轴: 6861.226km
偏心率: 0.0001916
轨道倾角: 43.009°
近地点辐角 297.179°
升交点赤经 273.171°
平近点角 62.886°
近地点: 481.776km
远地点: 484.406km
周期: 94.268分钟
每日圈数: 15.27567
详细信息
固有亮度:
5
最大亮度:
1.5
卫星平台:
Starlink v2.0 mini
覆盖范围:
全球
运营商:
太空探索技术公司
运营商所在国:
美国
制造商(研发单位):
太空探索技术公司
制造商所在国:
美国
使用方式:
暂无
卫星简介
星链(Starlink)计划是由太空探索技术公司(SpaceX)提出的一个巨型低轨卫星互联网星座项目,计划在2019年至2024年间在太空搭建由约1.2万颗卫星组成的“星链”网络,其中1584颗将部署在地球上空550千米处的近地轨道,并从2020年开始工作。该卫星仍在工作。
2D轨道图
3D轨道图
轨道高度分析图
轨道倾角分析图
轨道综合分析图
查看轨道综合分析图